AC8UJ Weather Reports


time (UTC)temp
C
wind
direction
speed
KPH
gust
KPH
rain 1hr
cm
rain 24hr
cm
rain mn
cm
humidity
%
barometer
mb
20260902212516 33 210 0.0 1.6 0.00 0.00 0.00 53
20260902211536 33 264 0.0 4.8 0.00 0.00 0.00 52
20260902210516 34 220 1.6 4.8 0.00 0.00 0.00 52
20260902205518 34 264 0.0 4.8 0.00 0.00 0.00 52
20260902204514 34 252 1.6 3.2 0.00 0.00 0.00 51
20260902203518 34 269 0.0 3.2 0.00 0.00 0.00 51
20260902202518 34 232 0.0 3.2 0.00 0.00 0.00 51
20260902201539 35 229 0.0 3.2 0.00 0.00 0.00 52
20260902200516 34 213 0.0 3.2 0.00 0.00 0.00 52
20260902195517 34 229 1.6 3.2 0.00 0.00 0.00 51
20260902194519 34 244 0.0 6.4 0.00 0.00 0.00 52
20260902193518 35 218 1.6 4.8 0.00 0.00 0.00 52
20260902192516 35 217 0.0 3.2 0.00 0.00 0.00 51
20260902191515 35 228 1.6 3.2 0.00 0.00 0.00 51
20260902190517 35 248 0.0 1.6 0.00 0.00 0.00 50
20260902185519 34 218 1.6 4.8 0.00 0.00 0.00 51
20260902184517 34 241 1.6 6.4 0.00 0.00 0.00 51
20260902183522 35 265 0.0 4.8 0.00 0.00 0.00 51
20260902182537 35 236 1.6 3.2 0.00 0.00 0.00 51
20260902181518 35 251 0.0 4.8 0.00 0.00 0.00 51
20260902180518 35 237 0.0 3.2 0.00 0.00 0.00 51
20260902175516 35 217 3.2 6.4 0.00 0.00 0.00 51
20260902174541 35 218 1.6 4.8 0.00 0.00 0.00 52
20260902173517 34 233 1.6 4.8 0.00 0.00 0.00 54
20260902172538 34 228 0.0 4.8 0.00 0.00 0.00 57
20260902171515 33 237 0.0 3.2 0.00 0.00 0.00 56
20260902170516 33 262 1.6 6.4 0.00 0.00 0.00 57
20260902165520 33 272 1.6 4.8 0.00 0.00 0.00 56
20260902164518 33 223 0.0 4.8 0.00 0.00 0.00 57
20260902163519 33 259 0.0 3.2 0.00 0.00 0.00 57
20260902162536 33 254 0.0 1.6 0.00 0.00 0.00 58
20260902161517 33 242 0.0 1.6 0.00 0.00 0.00 57
20260902160515 33 237 0.0 3.2 0.00 0.00 0.00 58
20260902155536 32 243 0.0 1.6 0.00 0.00 0.00 59
20260902154515 32 270 0.0 4.8 0.00 0.00 0.00 59
20260902153517 32 269 1.6 4.8 0.00 0.00 0.00 59
20260902152517 32 213 0.0 1.6 0.00 0.00 0.00 60
20260902151519 32 266 0.0 1.6 0.00 0.00 0.00 61
20260902150522 32 225 0.0 3.2 0.00 0.00 0.00 63
20260902145517 31 281 0.0 1.6 0.00 0.00 0.00 63
20260902144517 31 264 0.0 3.2 0.00 0.00 0.00 64
20260902143518 31 245 0.0 1.6 0.00 0.00 0.00 65
20260902142516 30 243 0.0 1.6 0.00 0.00 0.00 66
20260902141517 30 244 0.0 1.6 0.00 0.00 0.00 67
20260902140516 30 256 0.0 3.2 0.00 0.00 0.00 68
20260902135519 29 285 0.0 1.6 0.00 0.00 0.00 68
20260902134515 29 243 0.0 1.6 0.00 0.00 0.00 68
20260902133516 29 229 0.0 1.6 0.00 0.00 0.00 69
20260902132515 29 238 0.0 1.6 0.00 0.00 0.00 69
20260902131516 28 231 0.0 1.6 0.00 0.00 0.00 70
20260902130519 28 0.0 0.0 0.00 0.00 0.00 71
20260902125540 27 245 0.0 3.2 0.00 0.00 0.00 71
20260902124518 27 0.0 0.0 0.00 0.00 0.00 74
20260902123515 26 0.0 0.0 0.00 0.00 0.00 76
20260902122538 26 0.0 0.0 0.00 0.00 0.00 78
20260902121519 25 0.0 0.0 0.00 0.00 0.00 80
20260902120519 25 171 0.0 1.6 0.00 0.00 0.00 81
20260902115516 25 0.0 0.0 0.00 0.00 0.00 82
20260902114518 24 193 0.0 1.6 0.00 0.00 0.00 82
20260902113521 24 0.0 0.0 0.00 0.00 0.00 82
20260902112515 24 202 0.0 1.6 0.00 0.00 0.00 82
20260902111515 24 0.0 0.0 0.00 0.00 0.00 82
20260902110516 24 0.0 0.0 0.00 0.00 0.00 82
20260902105520 24 0.0 0.0 0.00 0.00 0.00 82
20260902104557 24 0.0 0.0 0.00 0.00 0.00 82
20260902103517 24 0.0 0.0 0.00 0.00 0.00 81
20260902102521 25 0.0 0.0 0.00 0.00 0.00 81
20260902101515 25 0.0 0.0 0.00 0.00 0.00 81
20260902100518 25 0.0 0.0 0.00 0.00 0.00 81
20260902095518 25 0.0 0.0 0.00 0.00 0.00 81
20260902094516 25 0.0 0.0 0.00 0.00 0.00 82
20260902093539 25 0.0 0.0 0.00 0.00 0.00 81
20260902092519 25 197 0.0 1.6 0.00 0.00 0.00 81
20260902091514 25 0.0 0.0 0.00 0.00 0.00 81
20260902090518 25 0.0 0.0 0.00 0.00 0.00 80
20260902085516 25 0.0 0.0 0.00 0.00 0.00 80
20260902084516 25 0.0 0.0 0.00 0.00 0.00 79
20260902083520 25 0.0 0.0 0.00 0.00 0.00 79
20260902082520 25 0.0 0.0 0.00 0.00 0.00 78
20260902081517 25 0.0 0.0 0.00 0.00 0.00 78
20260902080518 26 206 0.0 1.6 0.00 0.00 0.00 77
20260902075515 26 0.0 0.0 0.00 0.00 0.00 77
20260902074537 26 0.0 0.0 0.00 0.00 0.00 76
20260902073536 26 0.0 0.0 0.00 0.00 0.00 76
20260902072516 26 0.0 0.0 0.00 0.00 0.00 76
20260902071539 26 211 0.0 1.6 0.00 0.00 0.00 76
20260902070537 26 211 0.0 1.6 0.00 0.00 0.00 76
20260902065517 26 221 0.0 1.6 0.00 0.00 0.00 76
20260902064515 26 0.0 0.0 0.00 0.00 0.00 76
20260902063515 26 0.0 0.0 0.00 0.00 0.00 76
20260902062516 26 0.0 0.0 0.00 0.00 0.00 75
20260902061557 26 0.0 0.0 0.00 0.00 0.00 75
20260902060517 26 0.0 0.0 0.00 0.00 0.00 75
20260902055519 26 0.0 0.0 0.00 0.00 0.00 74
20260902054535 27 0.0 0.0 0.00 0.00 0.00 74
20260902053521 27 0.0 0.0 0.00 0.00 0.00 74
20260902052518 27 0.0 0.0 0.00 0.00 0.00 73
20260902051516 27 0.0 0.0 0.00 0.00 0.00 73
20260902050516 27 212 0.0 1.6 0.00 0.00 0.00 73
20260902045517 27 0.0 0.0 0.00 0.00 0.00 72
20260902044537 27 0.0 0.0 0.00 0.00 0.00 72
20260902043518 27 0.0 0.0 0.00 0.00 0.00 72
20260902042518 27 0.0 0.0 0.00 0.00 0.00 71
20260902041518 27 0.0 0.0 0.00 0.00 0.00 71
20260902040516 27 0.0 0.0 0.00 0.00 0.00 70
20260902035516 27 0.0 0.0 0.00 0.00 0.00 70
20260902034517 27 0.0 0.0 0.00 0.00 0.00 70
20260902033520 27 0.0 0.0 0.00 0.00 0.00 70
20260902032515 28 0.0 0.0 0.00 0.00 0.00 70
20260902031518 28 0.0 0.0 0.00 0.00 0.00 70
20260902030516 28 0.0 0.0 0.00 0.00 0.00 70
20260902025516 28 0.0 0.0 0.00 0.00 0.00 69
20260902024537 28 0.0 0.0 0.00 0.00 0.00 69
20260902023517 28 186 0.0 1.6 0.00 0.00 0.00 69
20260902022515 28 0.0 0.0 0.00 0.00 0.00 69
20260902021515 28 0.0 0.0 0.00 0.00 0.00 68
20260902020515 28 0.0 0.0 0.00 0.00 0.00 68
20260902015519 28 0.0 0.0 0.00 0.00 0.00 67
20260902014520 29 0.0 0.0 0.00 0.00 0.00 67
20260902013520 29 0.0 0.0 0.00 0.00 0.00 67
20260902012522 29 0.0 0.0 0.00 0.00 0.00 66
20260902011537 30 0.0 0.0 0.00 0.00 0.00 65
20260902010516 30 0.0 0.0 0.00 0.00 0.00 65
20260902005517 30 0.0 0.0 0.00 0.00 0.00 64
20260902004518 30 0.0 0.0 0.00 0.00 0.00 64
20260902003518 30 209 0.0 1.6 0.00 0.00 0.00 63
20260902002536 31 0.0 0.0 0.00 0.00 0.00 63
20260902001517 31 213 0.0 1.6 0.00 0.00 0.00 61
20260902000535 31 0.0 0.0 0.00 0.00 0.00 59
20260901235535 31 0.0 0.0 0.00 0.00 0.00 59
20260901234515 32 223 0.0 1.6 0.00 0.00 0.00 58
20260901233540 32 0.0 0.0 0.00 0.00 0.00 57
20260901232516 32 0.0 0.0 0.00 0.00 0.00 56
20260901231519 32 235 0.0 1.6 0.00 0.00 0.00 56
20260901230517 32 228 0.0 1.6 0.00 0.00 0.00 55
20260901225517 32 232 0.0 1.6 0.00 0.00 0.00 54
20260901224520 32 232 0.0 1.6 0.00 0.00 0.00 54
20260901223515 33 223 0.0 1.6 0.00 0.00 0.00 52
20260901222537 33 230 0.0 1.6 0.00 0.00 0.00 52
20260901221521 33 223 1.6 3.2 0.00 0.00 0.00 52
20260901220520 33 0.0 0.0 0.00 0.00 0.00